BEL3095 EBBR-GCTS

Flight info

Callsign BEL3095
Flight time N/A
Altitude 33000
Route CIV2X CIV N872 LESDO DCT KOVIN DCT DUCRA/N0455F350 UM728 RESMI UN857 DISAK DCT ARKIP DCT ARNAV DCT LMG DCT UVELI DCT OSMOB DCT VAVIX DCT NETUK DCT PPN DCT NOLSA N857 KORNO UN857 ABODA/N0454F370 UN857 TERTO TERTO2U
Aircraft A320/M-SDE3FGHIRWY/LB1

Departure

Time N/A
Airport Brussels Airport (EBBR)

Arrival

Time 2026-05-05 16:11
Airport Tenerife Sur Airport (GCTS)
Time Latitude Longitude Altitude Speed Heading
2026-05-05 12:51 43.67571 -1.24275 33015 ft 431 kts 214°
2026-05-05 12:52 43.62546 -1.28791 33015 ft 430 kts 214°
2026-05-05 12:52 43.57530 -1.33300 33024 ft 430 kts 214°
2026-05-05 12:53 43.52521 -1.37804 33026 ft 430 kts 214°
2026-05-05 12:53 43.47505 -1.42290 33026 ft 430 kts 214°
2026-05-05 12:54 43.39980 -1.48987 33011 ft 429 kts 214°
2026-05-05 12:55 43.34970 -1.53446 33040 ft 429 kts 215°
2026-05-05 12:55 43.29952 -1.57904 33030 ft 430 kts 215°
2026-05-05 12:56 43.24556 -1.61449 33022 ft 435 kts 198°
2026-05-05 12:56 43.18544 -1.62743 33014 ft 439 kts 190°
2026-05-05 12:57 43.12523 -1.63737 33010 ft 438 kts 191°
2026-05-05 12:57 43.06467 -1.64758 33007 ft 438 kts 191°
2026-05-05 12:58 43.00406 -1.65764 32990 ft 439 kts 191°
2026-05-05 12:58 42.94341 -1.66755 32998 ft 439 kts 191°
2026-05-05 12:59 42.88280 -1.67753 32970 ft 439 kts 191°
2026-05-05 12:59 42.82219 -1.68750 32968 ft 439 kts 191°
2026-05-05 13:00 42.73209 -1.70657 32968 ft 433 kts 201°
2026-05-05 13:01 42.62396 -1.77579 32976 ft 429 kts 209°
2026-05-05 13:01 42.57077 -1.81159 32973 ft 429 kts 209°
2026-05-05 13:02 42.51725 -1.84741 32986 ft 429 kts 209°
2026-05-05 13:02 42.46369 -1.88317 32991 ft 429 kts 209°
2026-05-05 13:03 42.41019 -1.91892 32995 ft 429 kts 209°
2026-05-05 13:03 42.35656 -1.95463 32969 ft 430 kts 209°
2026-05-05 13:04 42.30291 -1.99032 32983 ft 430 kts 209°
2026-05-05 13:04 42.24926 -2.02605 32982 ft 430 kts 209°
2026-05-05 13:05 42.19554 -2.06159 32989 ft 430 kts 209°
2026-05-05 13:05 42.14219 -2.09674 32986 ft 429 kts 210°
2026-05-05 13:06 42.08856 -2.13218 32990 ft 429 kts 210°
2026-05-05 13:06 42.03504 -2.16747 32984 ft 428 kts 209°
2026-05-05 13:07 41.98143 -2.20273 32984 ft 428 kts 209°
2026-05-05 13:07 41.92791 -2.23781 32965 ft 428 kts 210°
2026-05-05 13:08 41.87432 -2.27284 32973 ft 428 kts 210°
2026-05-05 13:08 41.82078 -2.30784 32982 ft 429 kts 210°
2026-05-05 13:09 41.76713 -2.34289 32970 ft 429 kts 210°
2026-05-05 13:09 41.71337 -2.37787 32955 ft 430 kts 210°
2026-05-05 13:10 41.65991 -2.41258 32966 ft 429 kts 210°
2026-05-05 13:10 41.60619 -2.44745 32976 ft 429 kts 210°
2026-05-05 13:11 41.55240 -2.48233 32980 ft 429 kts 210°
2026-05-05 13:11 41.49864 -2.51706 32976 ft 428 kts 210°
2026-05-05 13:12 41.44523 -2.55146 33000 ft 427 kts 210°
2026-05-05 13:12 41.39176 -2.58581 32999 ft 426 kts 210°
2026-05-05 13:13 41.33837 -2.62010 33001 ft 426 kts 210°
2026-05-05 13:13 41.28884 -2.66162 32990 ft 420 kts 219°
2026-05-05 13:14 41.24087 -2.70596 32986 ft 420 kts 219°
2026-05-05 13:14 41.19277 -2.75022 32970 ft 421 kts 218°
2026-05-05 13:15 41.14452 -2.79438 32972 ft 422 kts 219°
2026-05-05 13:15 41.09627 -2.83862 32950 ft 422 kts 219°
2026-05-05 13:16 41.05613 -2.87532 32968 ft 421 kts 219°
2026-05-05 13:16 41.00790 -2.91940 32979 ft 421 kts 219°
2026-05-05 13:17 40.95980 -2.96332 32983 ft 420 kts 219°
2026-05-05 13:17 40.91165 -3.00723 32983 ft 420 kts 219°
2026-05-05 13:18 40.86352 -3.05092 32947 ft 419 kts 219°
2026-05-05 13:18 40.81533 -3.09450 32958 ft 420 kts 219°
2026-05-05 13:19 40.76709 -3.13813 32957 ft 421 kts 219°
2026-05-05 13:19 40.71875 -3.18180 32963 ft 421 kts 219°
2026-05-05 13:20 40.67040 -3.22543 32957 ft 421 kts 219°
2026-05-05 13:20 40.62199 -3.26896 32958 ft 421 kts 219°
2026-05-05 13:21 40.57384 -3.31224 32964 ft 422 kts 219°
2026-05-05 13:21 40.52532 -3.35579 32972 ft 422 kts 219°
2026-05-05 13:22 40.47672 -3.39930 32975 ft 423 kts 219°
2026-05-05 13:22 40.43112 -3.44004 32974 ft 423 kts 219°
2026-05-05 13:23 40.38232 -3.48351 32961 ft 423 kts 220°
2026-05-05 13:23 40.33364 -3.52683 32973 ft 422 kts 220°
2026-05-05 13:24 40.28539 -3.56987 33002 ft 422 kts 220°
2026-05-05 13:24 40.23682 -3.61307 33011 ft 422 kts 220°
2026-05-05 13:25 40.18817 -3.65611 32975 ft 422 kts 220°
2026-05-05 13:25 40.13963 -3.69892 33006 ft 420 kts 220°
2026-05-05 13:26 40.09130 -3.74155 33003 ft 418 kts 220°
2026-05-05 13:26 40.04315 -3.78407 32988 ft 418 kts 220°
2026-05-05 13:27 39.99497 -3.82651 32989 ft 418 kts 221°
2026-05-05 13:27 39.94683 -3.86880 32963 ft 416 kts 221°
2026-05-05 13:28 39.89874 -3.91089 32980 ft 416 kts 221°
2026-05-05 13:28 39.85104 -3.95258 32987 ft 415 kts 221°
2026-05-05 13:29 39.80309 -3.99448 32987 ft 415 kts 221°
2026-05-05 13:29 39.75515 -4.03634 32983 ft 415 kts 221°
2026-05-05 13:30 39.70726 -4.07803 32959 ft 414 kts 221°
2026-05-05 13:30 39.65949 -4.11950 32974 ft 413 kts 222°
2026-05-05 13:31 39.61177 -4.16092 32982 ft 412 kts 221°
2026-05-05 13:31 39.56407 -4.20222 32990 ft 412 kts 221°
2026-05-05 13:32 39.51682 -4.24314 32978 ft 411 kts 221°
2026-05-05 13:32 39.46936 -4.28411 32964 ft 408 kts 222°
2026-05-05 13:33 39.42213 -4.32477 32980 ft 407 kts 222°
2026-05-05 13:33 39.37504 -4.36526 32987 ft 406 kts 222°
2026-05-05 13:34 39.32802 -4.40571 32992 ft 406 kts 222°
2026-05-05 13:34 39.28101 -4.44608 32997 ft 405 kts 222°
2026-05-05 13:35 39.23403 -4.48636 32969 ft 405 kts 221°
2026-05-05 13:35 39.18706 -4.52642 32986 ft 404 kts 221°
2026-05-05 13:36 39.14014 -4.56646 32990 ft 404 kts 221°
2026-05-05 13:36 39.09329 -4.60644 32983 ft 404 kts 221°
2026-05-05 13:37 39.04668 -4.64607 32982 ft 404 kts 221°
2026-05-05 13:37 38.99988 -4.68583 32975 ft 402 kts 221°
2026-05-05 13:38 38.95335 -4.72533 33001 ft 401 kts 221°
2026-05-05 13:38 38.90687 -4.76469 33003 ft 400 kts 221°
2026-05-05 13:39 38.86043 -4.80395 33002 ft 399 kts 221°
2026-05-05 13:39 38.81407 -4.84308 33000 ft 399 kts 221°
2026-05-05 13:40 38.76763 -4.88214 32970 ft 399 kts 221°
2026-05-05 13:40 38.72118 -4.92120 32980 ft 400 kts 221°
2026-05-05 13:41 38.67466 -4.96029 32961 ft 400 kts 221°
2026-05-05 13:41 38.62798 -4.99939 32971 ft 402 kts 220°
2026-05-05 13:42 38.58116 -5.03854 32977 ft 402 kts 221°
2026-05-05 13:42 38.53456 -5.07749 32943 ft 403 kts 220°
2026-05-05 13:43 38.48564 -5.11383 32978 ft 412 kts 214°
2026-05-05 13:43 38.43383 -5.14609 32980 ft 412 kts 214°
2026-05-05 13:44 38.38255 -5.17784 32983 ft 412 kts 214°
2026-05-05 13:44 38.33074 -5.20997 32988 ft 411 kts 214°
2026-05-05 13:45 38.27963 -5.24161 32992 ft 412 kts 214°
2026-05-05 13:45 38.22808 -5.27347 32982 ft 412 kts 214°
2026-05-05 13:46 38.17654 -5.30527 32997 ft 412 kts 214°
2026-05-05 13:46 38.12496 -5.33701 33002 ft 412 kts 213°
2026-05-05 13:47 38.07329 -5.36878 32989 ft 413 kts 213°
2026-05-05 13:47 38.02163 -5.40060 32965 ft 413 kts 213°
2026-05-05 13:48 37.96983 -5.43248 32974 ft 414 kts 213°
2026-05-05 13:48 37.91791 -5.46429 32973 ft 415 kts 213°
2026-05-05 13:49 37.86597 -5.49612 32982 ft 415 kts 213°
2026-05-05 13:49 37.81401 -5.52790 32955 ft 415 kts 212°
2026-05-05 13:50 37.76199 -5.55952 32968 ft 415 kts 212°
2026-05-05 13:50 37.70997 -5.59103 32977 ft 414 kts 212°
2026-05-05 13:51 37.65803 -5.62258 32982 ft 414 kts 212°
2026-05-05 13:51 37.60644 -5.65395 32987 ft 414 kts 212°
2026-05-05 13:52 37.55440 -5.68551 32978 ft 417 kts 212°
2026-05-05 13:52 37.50199 -5.71725 32980 ft 419 kts 212°
2026-05-05 13:53 37.44941 -5.74907 32984 ft 419 kts 212°
2026-05-05 13:53 37.40200 -5.78944 32984 ft 409 kts 225°
2026-05-05 13:54 37.35861 -5.83583 32985 ft 409 kts 225°
2026-05-05 13:54 37.31517 -5.88206 32965 ft 409 kts 225°
2026-05-05 13:55 37.27164 -5.92823 32974 ft 410 kts 225°
2026-05-05 13:55 37.22840 -5.97416 32983 ft 410 kts 225°
2026-05-05 13:56 37.18478 -6.02035 32986 ft 410 kts 225°
2026-05-05 13:56 37.14110 -6.06647 32991 ft 410 kts 225°
2026-05-05 13:57 37.09737 -6.11256 32992 ft 411 kts 224°
2026-05-05 13:57 37.05355 -6.15876 32998 ft 413 kts 224°
2026-05-05 13:58 37.00950 -6.20515 33006 ft 414 kts 224°
2026-05-05 13:58 36.96537 -6.25154 33021 ft 414 kts 224°
2026-05-05 13:59 36.89944 -6.32062 33036 ft 414 kts 224°
2026-05-05 14:00 36.84041 -6.38242 33046 ft 414 kts 224°
2026-05-05 14:00 36.78915 -6.43595 33035 ft 413 kts 224°
2026-05-05 14:01 36.74499 -6.48195 33044 ft 413 kts 223°
2026-05-05 14:01 36.70079 -6.52795 33036 ft 414 kts 223°
2026-05-05 14:02 36.65655 -6.57395 33039 ft 415 kts 223°
2026-05-05 14:02 36.61281 -6.61931 33053 ft 415 kts 223°
2026-05-05 14:03 36.56854 -6.66525 33054 ft 415 kts 223°
2026-05-05 14:03 36.52418 -6.71111 33048 ft 415 kts 223°
2026-05-05 14:04 36.47980 -6.75704 33053 ft 415 kts 223°
2026-05-05 14:04 36.43540 -6.80283 33064 ft 416 kts 223°
2026-05-05 14:05 36.39087 -6.84854 33071 ft 416 kts 223°
2026-05-05 14:05 36.34622 -6.89436 33066 ft 417 kts 223°
2026-05-05 14:06 36.30156 -6.94029 33064 ft 418 kts 223°
2026-05-05 14:06 36.25683 -6.98625 33045 ft 419 kts 223°
2026-05-05 14:07 36.21189 -7.03216 33057 ft 419 kts 223°
2026-05-05 14:07 36.17401 -7.07080 33063 ft 420 kts 223°
2026-05-05 14:08 36.12897 -7.11669 33072 ft 420 kts 223°
2026-05-05 14:08 36.08397 -7.16258 33076 ft 420 kts 223°
2026-05-05 14:09 36.03895 -7.20843 33080 ft 420 kts 223°
2026-05-05 14:09 35.99376 -7.25429 33059 ft 421 kts 222°
2026-05-05 14:10 35.94852 -7.30010 33069 ft 421 kts 222°
2026-05-05 14:10 35.90328 -7.34590 33078 ft 421 kts 222°
2026-05-05 14:11 35.85797 -7.39169 33083 ft 422 kts 222°
2026-05-05 14:11 35.81257 -7.43746 33079 ft 422 kts 222°
2026-05-05 14:12 35.76702 -7.48299 33081 ft 423 kts 222°
2026-05-05 14:12 35.72135 -7.52853 33084 ft 422 kts 222°
2026-05-05 14:13 35.67570 -7.57400 33089 ft 422 kts 222°
2026-05-05 14:13 35.63005 -7.61935 33098 ft 423 kts 221°
2026-05-05 14:14 35.58421 -7.66467 33094 ft 423 kts 221°
2026-05-05 14:14 35.53848 -7.71007 33092 ft 423 kts 222°
2026-05-05 14:15 35.49271 -7.75552 33068 ft 423 kts 221°
2026-05-05 14:15 35.44992 -7.79776 33082 ft 424 kts 221°
2026-05-05 14:16 35.40400 -7.84305 33076 ft 424 kts 221°
2026-05-05 14:16 35.35852 -7.88838 33084 ft 424 kts 222°
2026-05-05 14:17 35.31286 -7.93420 33089 ft 424 kts 222°
2026-05-05 14:17 35.26708 -7.97994 33084 ft 424 kts 221°
2026-05-05 14:18 35.22127 -8.02555 33075 ft 425 kts 221°
2026-05-05 14:18 35.17543 -8.07120 33074 ft 425 kts 221°
2026-05-05 14:19 35.12953 -8.11687 33077 ft 426 kts 221°
2026-05-05 14:19 35.08353 -8.16242 33086 ft 426 kts 221°
2026-05-05 14:20 35.03787 -8.20762 33079 ft 426 kts 221°
2026-05-05 14:20 34.99180 -8.25303 33089 ft 426 kts 221°
2026-05-05 14:21 34.94576 -8.29842 33060 ft 426 kts 221°
2026-05-05 14:21 34.89954 -8.34409 33079 ft 428 kts 221°
2026-05-05 14:22 34.85308 -8.38986 33078 ft 430 kts 221°
2026-05-05 14:22 34.80643 -8.43571 33076 ft 432 kts 221°
2026-05-05 14:23 34.75957 -8.48171 33079 ft 433 kts 220°
2026-05-05 14:23 34.71266 -8.52762 33084 ft 433 kts 220°
2026-05-05 14:24 34.66567 -8.57355 33073 ft 434 kts 220°
2026-05-05 14:24 34.61887 -8.61922 33079 ft 435 kts 220°
2026-05-05 14:25 34.57167 -8.66527 33084 ft 435 kts 221°
2026-05-05 14:25 34.52451 -8.71134 33088 ft 436 kts 221°
2026-05-05 14:26 34.47719 -8.75743 33087 ft 437 kts 220°
2026-05-05 14:26 34.42971 -8.80344 33089 ft 437 kts 220°
2026-05-05 14:27 34.38209 -8.84939 33080 ft 438 kts 220°
2026-05-05 14:27 34.33423 -8.89527 33082 ft 439 kts 220°
2026-05-05 14:28 34.28633 -8.94109 33084 ft 439 kts 220°
2026-05-05 14:28 34.23840 -8.98698 33090 ft 440 kts 220°
2026-05-05 14:29 34.19042 -9.03283 33093 ft 440 kts 220°
2026-05-05 14:29 34.14245 -9.07873 33096 ft 440 kts 220°
2026-05-05 14:30 34.09447 -9.12456 33094 ft 440 kts 220°
2026-05-05 14:30 34.04666 -9.17003 33094 ft 441 kts 220°
2026-05-05 14:31 33.99848 -9.21583 33094 ft 441 kts 220°
2026-05-05 14:31 33.95032 -9.26161 33096 ft 441 kts 220°
2026-05-05 14:32 33.90199 -9.30735 33100 ft 442 kts 220°
2026-05-05 14:32 33.85374 -9.35309 33096 ft 441 kts 220°
2026-05-05 14:33 33.80557 -9.39866 33121 ft 440 kts 220°
2026-05-05 14:33 33.75751 -9.44399 33128 ft 439 kts 220°
2026-05-05 14:34 33.70948 -9.48923 33111 ft 439 kts 220°
2026-05-05 14:34 33.66141 -9.53445 33107 ft 439 kts 220°
2026-05-05 14:35 33.61325 -9.57970 33103 ft 440 kts 220°
2026-05-05 14:35 33.56510 -9.62494 33102 ft 439 kts 220°
2026-05-05 14:36 33.51715 -9.66988 33126 ft 437 kts 220°
2026-05-05 14:36 33.46939 -9.71453 33128 ft 435 kts 220°
2026-05-05 14:37 33.42165 -9.75906 33126 ft 434 kts 220°
2026-05-05 14:37 33.37410 -9.80352 33120 ft 433 kts 220°
2026-05-05 14:38 33.32656 -9.84786 33117 ft 434 kts 220°
2026-05-05 14:38 33.27892 -9.89217 33105 ft 433 kts 221°
2026-05-05 14:39 33.23193 -9.93581 33131 ft 429 kts 221°
2026-05-05 14:39 33.18487 -9.97949 33128 ft 427 kts 221°
2026-05-05 14:40 33.13809 -10.02290 33129 ft 425 kts 221°
2026-05-05 14:40 33.09142 -10.06609 33129 ft 424 kts 221°
2026-05-05 14:41 33.04478 -10.10914 33122 ft 424 kts 221°
2026-05-05 14:41 32.99810 -10.15208 33119 ft 424 kts 221°
2026-05-05 14:42 32.95144 -10.19496 33114 ft 424 kts 221°
2026-05-05 14:42 32.90478 -10.23789 33101 ft 424 kts 220°
2026-05-05 14:43 32.85793 -10.28090 33103 ft 425 kts 220°
2026-05-05 14:43 32.81109 -10.32388 33097 ft 426 kts 220°
2026-05-05 14:44 32.76409 -10.36686 33098 ft 426 kts 220°
2026-05-05 14:44 32.71707 -10.40978 33083 ft 426 kts 221°
2026-05-05 14:45 32.67037 -10.45244 33124 ft 422 kts 221°
2026-05-05 14:45 32.62401 -10.49466 33126 ft 419 kts 221°
2026-05-05 14:46 32.57789 -10.53665 33117 ft 417 kts 221°
2026-05-05 14:46 32.53197 -10.57848 33121 ft 416 kts 221°
2026-05-05 14:47 32.48627 -10.62003 33101 ft 417 kts 221°
2026-05-05 14:47 32.44015 -10.66176 33090 ft 417 kts 221°
2026-05-05 14:48 32.39456 -10.70287 33084 ft 406 kts 221°
2026-05-05 14:48 32.34997 -10.74321 33084 ft 402 kts 222°
2026-05-05 14:49 32.30557 -10.78340 33087 ft 402 kts 222°
2026-05-05 14:49 32.26112 -10.82350 33082 ft 402 kts 221°
2026-05-05 14:50 32.21664 -10.86349 33082 ft 402 kts 221°
2026-05-05 14:50 32.17214 -10.90357 33082 ft 402 kts 221°
2026-05-05 14:51 32.12768 -10.94359 33086 ft 400 kts 222°
2026-05-05 14:51 32.08348 -10.98324 33104 ft 398 kts 222°
2026-05-05 14:52 32.03950 -11.02266 33108 ft 396 kts 222°
2026-05-05 14:52 31.99561 -11.06189 33102 ft 395 kts 222°
2026-05-05 14:53 31.95185 -11.10099 33099 ft 395 kts 222°
2026-05-05 14:53 31.90816 -11.14003 33091 ft 394 kts 222°
2026-05-05 14:54 31.86476 -11.17877 33091 ft 394 kts 222°
2026-05-05 14:54 31.82119 -11.21758 33089 ft 391 kts 223°
2026-05-05 14:55 31.77791 -11.25601 33092 ft 389 kts 223°
2026-05-05 14:55 31.73486 -11.29419 33102 ft 387 kts 223°
2026-05-05 14:56 31.69211 -11.33243 33092 ft 386 kts 223°
2026-05-05 14:56 31.65653 -11.36420 33076 ft 387 kts 223°
2026-05-05 14:57 31.61364 -11.40245 33069 ft 387 kts 223°
2026-05-05 14:57 31.57073 -11.44065 33065 ft 387 kts 223°
2026-05-05 14:58 31.52783 -11.47873 33069 ft 385 kts 223°
2026-05-05 14:58 31.48515 -11.51654 33080 ft 383 kts 223°
2026-05-05 14:59 31.44270 -11.55416 33085 ft 382 kts 223°
2026-05-05 14:59 31.40066 -11.59130 33084 ft 381 kts 223°
2026-05-05 15:00 31.36531 -11.62257 33084 ft 380 kts 223°
2026-05-05 15:00 31.31632 -11.66586 33077 ft 380 kts 223°
2026-05-05 15:01 31.27414 -11.70307 33073 ft 380 kts 223°
2026-05-05 15:01 31.23202 -11.74010 33056 ft 378 kts 223°
2026-05-05 15:02 31.19014 -11.77689 33082 ft 375 kts 223°
2026-05-05 15:02 31.14854 -11.81349 33083 ft 374 kts 223°
2026-05-05 15:03 31.10706 -11.84998 33086 ft 373 kts 223°
2026-05-05 15:03 31.06566 -11.88636 33076 ft 372 kts 223°
2026-05-05 15:04 31.02453 -11.92241 33080 ft 372 kts 223°
2026-05-05 15:04 30.98312 -11.95858 33077 ft 372 kts 223°
2026-05-05 15:05 30.92110 -12.01268 33040 ft 371 kts 223°
2026-05-05 15:06 30.87980 -12.04874 33055 ft 371 kts 223°
2026-05-05 15:06 30.83857 -12.08471 33053 ft 370 kts 223°
2026-05-05 15:07 30.79729 -12.12059 33059 ft 370 kts 223°
2026-05-05 15:07 30.75606 -12.15648 33059 ft 370 kts 223°
2026-05-05 15:08 30.71484 -12.19239 33055 ft 370 kts 223°
2026-05-05 15:08 30.67385 -12.22799 33053 ft 370 kts 223°
2026-05-05 15:09 30.63262 -12.26376 33024 ft 370 kts 223°
2026-05-05 15:09 30.59135 -12.29950 33040 ft 370 kts 223°
2026-05-05 15:10 30.55004 -12.33517 33046 ft 370 kts 223°
2026-05-05 15:10 30.50867 -12.37080 33048 ft 370 kts 223°
2026-05-05 15:11 30.46733 -12.40640 33045 ft 370 kts 223°
2026-05-05 15:11 30.42595 -12.44190 33054 ft 370 kts 223°
2026-05-05 15:12 30.38464 -12.47742 33053 ft 370 kts 223°
2026-05-05 15:12 30.34330 -12.51292 33020 ft 370 kts 223°
2026-05-05 15:13 30.30189 -12.54838 33028 ft 371 kts 223°
2026-05-05 15:13 30.26036 -12.58386 33035 ft 371 kts 223°
2026-05-05 15:14 30.21913 -12.61913 33040 ft 371 kts 223°
2026-05-05 15:14 30.17748 -12.65456 33044 ft 372 kts 223°
2026-05-05 15:15 30.13587 -12.69011 33049 ft 372 kts 223°
2026-05-05 15:15 30.09436 -12.72569 33043 ft 371 kts 224°
2026-05-05 15:16 30.05427 -12.76296 33047 ft 369 kts 226°
2026-05-05 15:16 30.01486 -12.80091 33055 ft 369 kts 225°
2026-05-05 15:17 29.97523 -12.83859 33051 ft 369 kts 225°
2026-05-05 15:17 29.93561 -12.87578 33052 ft 369 kts 225°
2026-05-05 15:18 29.89574 -12.91313 33052 ft 369 kts 225°
2026-05-05 15:18 29.85583 -12.95049 33053 ft 369 kts 225°
2026-05-05 15:19 29.81594 -12.98788 33054 ft 369 kts 225°
2026-05-05 15:19 29.77610 -13.02521 33057 ft 370 kts 225°
2026-05-05 15:20 29.73615 -13.06259 33022 ft 370 kts 225°
2026-05-05 15:20 29.69609 -13.09997 33032 ft 371 kts 225°
2026-05-05 15:21 29.65593 -13.13735 33040 ft 372 kts 225°
2026-05-05 15:21 29.61573 -13.17475 33045 ft 372 kts 225°
2026-05-05 15:22 29.57551 -13.21204 33049 ft 371 kts 225°
2026-05-05 15:22 29.53539 -13.24942 33050 ft 371 kts 225°
2026-05-05 15:23 29.49546 -13.28660 33050 ft 372 kts 225°
2026-05-05 15:23 29.45525 -13.32395 33053 ft 372 kts 225°
2026-05-05 15:24 29.41492 -13.36122 33031 ft 372 kts 224°
2026-05-05 15:24 29.37464 -13.39842 33030 ft 372 kts 224°
2026-05-05 15:25 29.33437 -13.43567 33034 ft 372 kts 224°
2026-05-05 15:25 29.29405 -13.47293 33038 ft 373 kts 224°
2026-05-05 15:26 29.25368 -13.51024 33044 ft 373 kts 224°
2026-05-05 15:26 29.21323 -13.54752 33040 ft 373 kts 224°
2026-05-05 15:27 29.17305 -13.58447 33034 ft 373 kts 224°
2026-05-05 15:27 29.13263 -13.62165 33034 ft 373 kts 224°
2026-05-05 15:28 29.09221 -13.65879 33002 ft 373 kts 224°
2026-05-05 15:28 29.05146 -13.69612 33008 ft 373 kts 224°
2026-05-05 15:29 29.01121 -13.73306 33013 ft 373 kts 224°
2026-05-05 15:29 28.97069 -13.77022 33016 ft 373 kts 224°
2026-05-05 15:30 28.93015 -13.80730 33019 ft 374 kts 224°
2026-05-05 15:30 28.88954 -13.84437 33024 ft 374 kts 224°
2026-05-05 15:31 28.84893 -13.88148 33034 ft 374 kts 224°
2026-05-05 15:31 28.80833 -13.91847 32997 ft 374 kts 223°
2026-05-05 15:32 28.76771 -13.95550 33013 ft 374 kts 223°
2026-05-05 15:32 28.72701 -13.99255 33009 ft 375 kts 223°
2026-05-05 15:33 28.68647 -14.02934 33011 ft 375 kts 223°
2026-05-05 15:33 28.64533 -14.06667 33027 ft 376 kts 223°
2026-05-05 15:34 28.60442 -14.10378 33033 ft 376 kts 223°
2026-05-05 15:34 28.56378 -14.14067 33035 ft 376 kts 223°
2026-05-05 15:35 28.52284 -14.17775 33038 ft 376 kts 223°
2026-05-05 15:35 28.48190 -14.21478 32997 ft 376 kts 223°
2026-05-05 15:36 28.44085 -14.25184 33014 ft 377 kts 223°
2026-05-05 15:36 28.39978 -14.28889 33017 ft 377 kts 223°
2026-05-05 15:37 28.35870 -14.32602 33020 ft 377 kts 223°
2026-05-05 15:37 28.31759 -14.36313 33022 ft 377 kts 223°
2026-05-05 15:38 28.27673 -14.39994 33022 ft 377 kts 223°
2026-05-05 15:38 28.23554 -14.43683 33022 ft 377 kts 223°
2026-05-05 15:39 28.19435 -14.47379 33023 ft 377 kts 223°
2026-05-05 15:39 28.15321 -14.51079 32995 ft 378 kts 223°
2026-05-05 15:40 28.11194 -14.54781 33002 ft 379 kts 223°
2026-05-05 15:40 28.07051 -14.58482 33021 ft 379 kts 223°
2026-05-05 15:41 28.02926 -14.62208 33029 ft 378 kts 226°
2026-05-05 15:41 27.99823 -14.66892 33029 ft 373 kts 244°
2026-05-05 15:42 27.98336 -14.72494 33028 ft 376 kts 253°
2026-05-05 15:42 27.97098 -14.78239 33026 ft 376 kts 253°
2026-05-05 15:43 27.95849 -14.83983 33028 ft 376 kts 253°
2026-05-05 15:43 27.94596 -14.89726 33029 ft 376 kts 253°
2026-05-05 15:44 27.93340 -14.95474 33037 ft 376 kts 253°
2026-05-05 15:44 27.92086 -15.01216 33035 ft 376 kts 253°
2026-05-05 15:45 27.90842 -15.06955 33031 ft 376 kts 253°
2026-05-05 15:45 27.89588 -15.12685 33033 ft 376 kts 253°
2026-05-05 15:46 27.88345 -15.18368 33028 ft 376 kts 253°
2026-05-05 15:46 27.87074 -15.24155 33028 ft 376 kts 253°
2026-05-05 15:47 27.86021 -15.28920 33027 ft 376 kts 253°
2026-05-05 15:47 27.84754 -15.34646 33027 ft 376 kts 253°
2026-05-05 15:48 27.83489 -15.40376 33028 ft 376 kts 253°
2026-05-05 15:48 27.83118 -15.46303 33027 ft 386 kts 269°
2026-05-05 15:49 27.83653 -15.52349 33029 ft 387 kts 269°
2026-05-05 15:49 27.84189 -15.58393 33030 ft 386 kts 269°
2026-05-05 15:50 27.84712 -15.64425 32854 ft 382 kts 269°
2026-05-05 15:50 27.84971 -15.67398 31433 ft 382 kts 270°
2026-05-05 15:50 27.85228 -15.70431 29755 ft 392 kts 270°
2026-05-05 15:50 27.85489 -15.73511 27940 ft 395 kts 270°
2026-05-05 15:51 27.85752 -15.76571 27035 ft 387 kts 270°
2026-05-05 15:51 27.86014 -15.79605 26049 ft 388 kts 270°
2026-05-05 15:51 27.86274 -15.82649 25062 ft 390 kts 270°
2026-05-05 15:51 27.86526 -15.85639 24116 ft 388 kts 270°
2026-05-05 15:52 27.86783 -15.88671 23111 ft 386 kts 270°
2026-05-05 15:52 27.87041 -15.91683 22140 ft 385 kts 270°
2026-05-05 15:52 27.87296 -15.94684 21402 ft 382 kts 270°
2026-05-05 15:52 27.87548 -15.97662 20667 ft 379 kts 270°
2026-05-05 15:53 27.87798 -16.00611 20102 ft 373 kts 270°
2026-05-05 15:53 27.88040 -16.03462 19976 ft 356 kts 270°
2026-05-05 15:53 27.88272 -16.06191 19854 ft 342 kts 270°
2026-05-05 15:53 27.88492 -16.08807 19735 ft 328 kts 270°
2026-05-05 15:54 27.88702 -16.11321 19613 ft 314 kts 269°
2026-05-05 15:54 27.88901 -16.13729 19506 ft 302 kts 269°
2026-05-05 15:54 27.89094 -16.16048 19325 ft 292 kts 269°
2026-05-05 15:54 27.89280 -16.18314 19091 ft 287 kts 269°
2026-05-05 15:55 27.89461 -16.20556 18860 ft 286 kts 269°
2026-05-05 15:55 27.89641 -16.22793 18632 ft 285 kts 269°
2026-05-05 15:55 27.89808 -16.25021 18399 ft 283 kts 266°
2026-05-05 15:55 27.89643 -16.27207 18159 ft 277 kts 253°
2026-05-05 15:56 27.89077 -16.29273 17894 ft 275 kts 251°
2026-05-05 15:56 27.88739 -16.31410 17641 ft 277 kts 260°
2026-05-05 15:56 27.88603 -16.33585 17380 ft 278 kts 263°
2026-05-05 15:56 27.88539 -16.35769 17128 ft 277 kts 263°
2026-05-05 15:57 27.88482 -16.37911 16880 ft 276 kts 263°
2026-05-05 15:57 27.88407 -16.40077 16627 ft 275 kts 263°
2026-05-05 15:57 27.88313 -16.42230 16337 ft 273 kts 263°
2026-05-05 15:57 27.88204 -16.44379 15895 ft 275 kts 262°
2026-05-05 15:58 27.88084 -16.46542 15430 ft 277 kts 263°
2026-05-05 15:58 27.87959 -16.48710 15100 ft 274 kts 263°
2026-05-05 15:58 27.87833 -16.50876 14671 ft 275 kts 263°
2026-05-05 15:58 27.87709 -16.53004 14197 ft 269 kts 263°
2026-05-05 15:59 27.87585 -16.55114 13567 ft 270 kts 263°
2026-05-05 15:59 27.87457 -16.57244 13078 ft 272 kts 263°
2026-05-05 15:59 27.87327 -16.59383 12628 ft 273 kts 263°
2026-05-05 15:59 27.87198 -16.61528 12175 ft 274 kts 264°
2026-05-05 16:00 27.87067 -16.63675 11773 ft 273 kts 264°
2026-05-05 16:00 27.86939 -16.65833 11357 ft 274 kts 264°
2026-05-05 16:00 27.86810 -16.67989 10930 ft 275 kts 264°
2026-05-05 16:00 27.86677 -16.70167 10453 ft 277 kts 264°
2026-05-05 16:01 27.86548 -16.72327 10098 ft 276 kts 264°
2026-05-05 16:01 27.86419 -16.74495 9652 ft 277 kts 264°
2026-05-05 16:01 27.86291 -16.76667 9195 ft 277 kts 264°
2026-05-05 16:01 27.86161 -16.78840 8754 ft 277 kts 265°
2026-05-05 16:02 27.86028 -16.81009 8316 ft 277 kts 265°
2026-05-05 16:02 27.85746 -16.83154 7872 ft 276 kts 253°
2026-05-05 16:02 27.85055 -16.85165 7480 ft 273 kts 247°
2026-05-05 16:02 27.84478 -16.87187 7043 ft 268 kts 263°
2026-05-05 16:03 27.84602 -16.89180 6856 ft 249 kts 285°
2026-05-05 16:03 27.85320 -16.90890 6694 ft 231 kts 306°
2026-05-05 16:03 27.86453 -16.92134 6285 ft 227 kts 326°
2026-05-05 16:03 27.87876 -16.92825 5821 ft 228 kts 347°
2026-05-05 16:04 27.89455 -16.92907 5511 ft 227 kts
2026-05-05 16:04 27.90951 -16.92379 5226 ft 225 kts 28°
2026-05-05 16:04 27.92187 -16.91315 4926 ft 224 kts 47°
2026-05-05 16:04 27.93027 -16.89840 4619 ft 223 kts 67°
2026-05-05 16:05 27.93391 -16.88138 4298 ft 223 kts 81°
2026-05-05 16:05 27.93696 -16.86418 3965 ft 222 kts 70°
2026-05-05 16:05 27.94305 -16.84823 3657 ft 221 kts 63°
2026-05-05 16:05 27.94945 -16.83275 3356 ft 220 kts 64°
2026-05-05 16:06 27.95655 -16.81755 3051 ft 218 kts 57°
2026-05-05 16:06 27.96357 -16.80264 2971 ft 212 kts 64°
2026-05-05 16:06 27.96951 -16.78702 2991 ft 215 kts 66°
2026-05-05 16:06 27.97489 -16.77179 2995 ft 204 kts 67°
2026-05-05 16:07 27.97992 -16.75739 3028 ft 188 kts 67°
2026-05-05 16:07 27.98453 -16.74422 2976 ft 173 kts 66°
2026-05-05 16:07 27.98886 -16.73184 2822 ft 166 kts 66°
2026-05-05 16:07 27.99304 -16.71988 2629 ft 160 kts 66°
2026-05-05 16:08 27.99704 -16.70846 2460 ft 152 kts 66°
2026-05-05 16:08 28.00081 -16.69765 2258 ft 144 kts 63°
2026-05-05 16:08 28.00438 -16.68742 2077 ft 139 kts 64°
2026-05-05 16:08 28.00786 -16.67736 1838 ft 138 kts 62°
2026-05-05 16:09 28.01132 -16.66738 1689 ft 135 kts 61°
2026-05-05 16:09 28.01476 -16.65762 1505 ft 132 kts 64°
2026-05-05 16:09 28.01811 -16.64796 1337 ft 130 kts 64°
2026-05-05 16:09 28.02146 -16.63845 1168 ft 129 kts 66°
2026-05-05 16:10 28.02483 -16.62880 1002 ft 133 kts 69°
2026-05-05 16:10 28.02824 -16.61900 822 ft 133 kts 68°
2026-05-05 16:10 28.03163 -16.60929 627 ft 131 kts 74°
2026-05-05 16:10 28.03501 -16.59970 483 ft 134 kts 71°
2026-05-05 16:11 28.03838 -16.59008 326 ft 133 kts 72°
2026-05-05 16:11 28.04555 -16.57011 210 ft 21 kts 50°
2026-05-05 16:12 28.04627 -16.56918 208 ft 15 kts 49°
2026-05-05 16:12 28.04760 -16.56807 208 ft 9 kts 331°
2026-05-05 16:13 28.04770 -16.56885 213 ft 0 kts 249°
2026-05-05 16:13 28.04770 -16.56886 208 ft 0 kts 249°
2026-05-05 16:15 28.04763 -16.56907 211 ft 7 kts 249°
2026-05-05 16:16 28.04701 -16.57084 214 ft 11 kts 248°
2026-05-05 16:16 28.04618 -16.57299 215 ft 19 kts 248°
2026-05-05 16:17 28.04565 -16.57506 218 ft 3 kts 307°
2026-05-05 16:17 28.04585 -16.57522 211 ft 4 kts 333°
2026-05-05 16:18 28.04600 -16.57529 216 ft 0 kts 337°
2026-05-05 16:18 28.04605 -16.57532 215 ft 0 kts 338°
2026-05-05 16:18 28.04618 -16.57538 214 ft 1 kts 338°
2026-05-05 16:19 28.04619 -16.57538 214 ft 1 kts 338°
2026-05-05 16:19 28.04624 -16.57541 215 ft 0 kts 338°
2026-05-05 16:19 28.04627 -16.57542 215 ft 0 kts 338°